Home   Weather   Kairouan   Past weeks

Flag for Tunisia Past Weather in Kairouan, Tunisia — Yesterday and Last 2 Weeks

Now
54 °F

Clear.


Feels Like: 54 °F
Forecast: 37 / 60 °F
Wind: No wind

Location: Kairouan Airport

Current Time: Jan 21, 2017 at 7:02:39 pm

Latest Report: Jan 21, 2017 at 6:00 pm


Visibility: 5 mi

Pressure: 29.89 "Hg

Humidity: 41%

Dew Point: 30 °F

Location of KairouanLocation

Past Weather in Kairouan — Graph

°F

Kairouan Temperature Yesterday

Maximum temperature yesterday: 61 °F (at 2:00 pm)
Minimum temperature yesterday: 41 °F (at 3:00 am)
Average temperature yesterday: 51 °F

High & Low Weather Summary for the Past Weeks

 TemperatureHumidityPressure
High66 °F (Jan 13, 4:00 pm)82% (Jan 8, 12:00 am)30.36 "Hg (Jan 8, 12:00 am)
Low37 °F (Jan 19, 6:00 am)32% (Jan 13, 4:00 pm)29.65 "Hg (Jan 17, 2:00 pm)
Average50 °F59%30.01 "Hg
* Reported Jan 6 5:00 pm — Jan 21 5:00 pm, Kairouan, Weather by CustomWeather, © 2017

Note: Actual official high and low records may vary slightly from our data, if they occured in-between our weather recording intervals... More about our weather records

Advertising

Kairouan Weather History for the Previous 24 Hours

Scroll right to see more
 ConditionsComfort  
Time TempWeatherWind HumidityBarometerVisibility
5:00 pm
Sat, Jan 21
57 °FClear.3 mph36%29.86 "Hg5 mi
4:00 pm59 °FClear.5 mph34%29.86 "Hg5 mi
3:00 pm59 °FClear.2 mph36%29.83 "Hg5 mi
2:00 pm59 °FClear.5 mph36%29.83 "Hg5 mi
1:00 pm59 °FClear.2 mph36%29.86 "Hg5 mi
12:00 pm57 °FClear.5 mph39%29.86 "Hg5 mi
11:00 am55 °FClear.2 mph44%29.89 "Hg5 mi
10:00 am54 °FClear.No wind58%29.89 "Hg4 mi
9:00 am50 °FClear.2 mph67%29.86 "Hg4 mi
8:00 am48 °FPassing clouds.No wind71%29.80 "Hg4 mi
7:00 am52 °FPassing clouds.No wind72%29.80 "Hg5 mi
6:00 am55 °FCool.6 mph72%29.77 "HgN/A
5:00 am55 °FPassing clouds.10 mph77%29.77 "Hg5 mi
4:00 am57 °FCool.12 mph72%29.77 "HgN/A
3:00 am57 °FCool.10 mph72%29.80 "HgN/A
2:00 am57 °FPassing clouds.9 mph72%29.83 "Hg5 mi
1:00 am57 °FPassing clouds.9 mph72%29.83 "Hg5 mi
12:00 am55 °FPassing clouds.2 mph77%29.86 "Hg5 mi
11:00 pm
Fri, Jan 20
55 °FPassing clouds.2 mph77%29.89 "Hg5 mi
10:00 pm55 °FPassing clouds.No wind77%29.92 "Hg5 mi
9:00 pm55 °FPassing clouds.No wind72%29.92 "HgN/A
8:00 pm57 °FPassing clouds.No wind67%29.92 "HgN/A
7:00 pm57 °FPassing clouds.5 mph72%29.92 "HgN/A
Weather by CustomWeather, © 2017

See weather overviewHow to use our weather pages